This demonstration page uses our WeatherBlox Daily Observations layout. Learn more.

Left ArrowRight Arrow

44.8408, -93.29828

Hourly Observations for September 16, 2018

Temp ( °F °C ) Dew Point ( °F °C ) Humidity (%) Winds ( mph kmh ) Pressure ( in mb ) Visibility ( mi km ) Precip ( " mm )
12:53 am 00:53 Clear 78 25.6 68 20 71 71 S 10 17 30.03 1017 10 16 0.00 0.00
1:53 am 01:53 Clear 77 25 67 19.4 71 71 S 14 22 30.04 1017 10 16 0.00 0.00
2:53 am 02:53 Clear 77 25 66 18.9 69 69 S 14 22 30.03 1017 10 16 0.00 0.00
3:53 am 03:53 Clear 76 24.4 65 18.3 69 69 S 12 19 30.03 1017 10 16 0.00 0.00
4:53 am 04:53 Cloudy 75 23.9 65 18.3 71 71 S 8 13 30.03 1017 10 16 0.00 0.00
5:53 am 05:53 Mostly Cloudy 73 22.8 66 18.9 79 79 SSE 7 11 30.04 1017 10 16 0.00 0.00
6:53 am 06:53 Mostly Cloudy 72 22.2 66 18.9 82 82 SE 7 11 30.04 1017 10 16 0.00 0.00
7:53 am 07:53 Mostly Cloudy 74 23.3 66 18.9 76 76 SSE 8 13 30.05 1018 10 16 0.00 0.00
8:53 am 08:53 Partly Cloudy 76 24.4 67 19.4 74 74 S 6 9 30.03 1017 10 16 0.00 0.00
9:53 am 09:53 Mostly Sunny 78 25.6 67 19.4 69 69 S 9 15 30.02 1017 10 16 0.00 0.00
10:53 am 10:53 Mostly Sunny 83 28.3 67 19.4 59 59 SSW 8 13 30.01 1016 10 16 0.00 0.00
11:53 am 11:53 Sunny 85 29.4 68 20 57 57 S 12 19 29.99 1016 10 16 0.00 0.00
12:53 pm 12:53 Partly Cloudy 88 31.1 65 18.3 46 46 SSW 14 22 29.97 1015 10 16 0.00 0.00
1:53 pm 13:53 Partly Cloudy 89 31.7 65 18.3 45 45 SSW 15 24 29.93 1014 10 16 0.00 0.00
2:53 pm 14:53 Partly Cloudy 89 31.7 65 18.3 45 45 S 17 28 29.91 1013 10 16 0.00 0.00
3:53 pm 15:53 Partly Cloudy 90 32.2 63 17.2 41 41 S 10 17 29.89 1012 10 16 0.00 0.00
4:53 pm 16:53 Mostly Sunny 89 31.7 64 17.8 43 43 S 16 26 29.87 1012 10 16 0.00 0.00
5:53 pm 17:53 Mostly Sunny 88 31.1 64 17.8 45 45 S 15 24 29.86 1011 10 16 0.00 0.00
6:53 pm 18:53 Mostly Sunny 86 30 64 17.8 48 48 S 13 20 29.85 1011 10 16 0.00 0.00
7:53 pm 19:53 Mostly Clear 84 28.9 63 17.2 49 49 S 9 15 29.85 1011 10 16 0.00 0.00
8:53 pm 20:53 Mostly Clear 83 28.3 63 17.2 51 51 S 9 15 29.86 1011 10 16 0.00 0.00
9:53 pm 21:53 Clear 81 27.2 63 17.2 54 54 S 13 20 29.86 1011 10 16 0.00 0.00
10:53 pm 22:53 Clear 79 26.1 63 17.2 58 58 S 9 15 29.86 1011 10 16 0.00 0.00
11:53 pm 23:53 Mostly Cloudy 79 26.1 63 17.2 58 58 S 7 11 29.86 1011 10 16 0.00 0.00

Powered by AerisWeather